Temp
7 6 6 6 6 6 6 6 6 6 6 6 5 5 5 5 5 5 5 5 5 5 5 5 5 5 5 5 4 4 4 3 3 3 4 4 4 4 4 4 3 3 3
7 7 7 7 7 6 6 6 6 6 6 6 6 6 5 5 5 5 5 5 5 5 5 5 5 5 5 5 5 3 3 4 3 3 4 4 3 3 4 4 4 3 3
7 7 7 7 7 6 6 6 6 6 6 6 6 6 6 5 5 5 5 5 5 4 5 5 5 5 5 5 5 4 4 4 4 3 3 3 2 4 4 4 4 3 3
6 6 6 6 6 6 6 6 6 6 6 6 6 6 6 6 6 6 6 5 5 4 3 4 4 4 5 5 5 5 5 5 5 4 4 3 3 3 3 4 3 4 3
6 6 6 6 5 5 5 5 5 5 5 5 5 5 5 5 5 5 5 5 5 4 3 3 3 4 4 4 4 4 5 5 5 4 4 3 2 2 2 3 2 3 3
5 5 5 5 5 5 5 5 5 5 5 5 5 4 4 4 4 5 5 5 4 4 3 2 2 3 3 4 4 4 4 4 4 3 4 3 3 2 1 2 2 3 3
4 4 4 4 4 4 4 4 4 5 5 5 5 4 4 4 4 4 4 3 4 3 2 1 2 2 3 3 3 4 4 4 4 4 4 4 3 2 4 2 2 3 3
3 3 3 3 4 4 4 4 4 4 4 4 4 4 4 3 3 3 3 2 2 1 1 0 1 1 2 2 3 4 4 4 4 4 4 3 3 3 3 3 2 2 3
3 3 3 3 3 3 3 4 4 4 4 3 3 3 3 3 2 2 2 1 1 1 0 -0 0 1 1 2 2 3 3 4 4 4 3 3 3 3 3 3 3 3 2
3 3 3 3 3 3 3 3 3 3 2 2 2 2 2 2 2 2 0 -0 0 -0 -0 -1 -1 -0 0 1 1 2 2 3 3 4 3 3 3 3 2 2 2 3 2
2 2 3 3 3 2 2 2 2 2 1 1 1 1 0 0 0 1 1 -0 -2 -2 -2 -2 -1 -1 -0 -0 0 1 2 2 2 3 3 3 3 3 3 3 2 3 2
2 2 2 2 1 1 1 1 0 0 0 0 0 0 -0 -1 -2 -2 -2 -1 -2 -3 -3 -3 -3 -2 -1 -1 -1 -1 1 1 1 2 2 3 2 3 3 2 2 2 2
1 1 1 0 0 -0 -0 -0 -0 -0 -0 -1 -1 -2 -3 -3 -4 -4 -4 -3 -3 -3 -4 -2 -3 -3 -2 -1 -1 -2 -1 0 0 1 1 1 1 2 1 2 2 2 2
0 -0 -0 -0 -0 -1 -1 -1 -1 -1 -2 -2 -3 -4 -5 -5 -5 -5 -5 -5 -4 -5 -6 -4 -3 -3 -3 -3 -2 -1 -1 -1 -0 0 1 1 2 2 1 1 2 2 2
-1 -1 -1 -1 -1 -1 -1 -1 -2 -3 -4 -4 -5 -5 -5 -5 -5 -5 -5 -6 -6 -6 -7 -6 -5 -5 -4 -4 -3 -3 -2 -1 -1 -1 0 1 1 1 1 1 1 2 2
-1 -1 -1 -2 -2 -2 -2 -2 -3 -4 -4 -5 -6 -5 -5 -5 -5 -5 -6 -7 -7 -7 -7 -7 -6 -7 -7 -5 -5 -4 -3 -2 -2 -1 -1 -0 0 1 1 1 1 1 2
-2 -2 -2 -2 -2 -2 -3 -3 -4 -5 -6 -5 -6 -5 -5 -5 -5 -5 -6 -7 -7 -8 -8 -8 -7 -7 -7 -7 -6 -5 -4 -3 -2 -1 -1 -0 0 0 1 1 1 1 1
-3 -3 -3 -3 -3 -3 -4 -5 -6 -6 -6 -6 -6 -5 -6 -5 -5 -6 -6 -7 -7 -7 -7 -8 -8 -8 -7 -7 -6 -6 -5 -4 -2 -2 -1 -2 -1 -0 -0 0 0 1 1
-3 -3 -3 -3 -3 -4 -5 -6 -6 -6 -6 -6 -6 -6 -6 -6 -6 -6 -6 -6 -7 -7 -7 -7 -7 -8 -9 -7 -6 -6 -6 -6 -7 -6 -4 -3 -2 -2 -2 -1 -1 -1 -0
-4 -4 -4 -4 -4 -5 -6 -6 -6 -6 -6 -6 -6 -6 -6 -7 -7 -7 -7 -7 -7 -7 -7 -7 -7 -7 -7 -7 -7 -7 -6 -6 -6 -7 -5 -5 -6 -5 -5 -4 -3 -2 -1
-4 -4 -4 -4 -5 -6 -6 -6 -6 -7 -7 -7 -7 -7 -7 -7 -7 -7 -8 -8 -7 -7 -7 -7 -7 -7 -7 -7 -7 -6 -6 -6 -6 -6 -6 -5 -6 -6 -6 -5 -4 -3 -3
-5 -5 -5 -6 -6 -6 -6 -6 -7 -7 -7 -7 -7 -7 -8 -8 -8 -8 -8 -8 -8 -8 -7 -7 -7 -7 -7 -7 -7 -7 -6 -6 -6 -6 -6 -6 -6 -5 -5 -5 -4 -4 -3
-6 -6 -6 -7 -6 -6 -6 -7 -7 -7 -7 -8 -7 -7 -8 -8 -8 -8 -8 -8 -8 -8 -8 -8 -8 -7 -7 -7 -6 -6 -6 -6 -6 -6 -5 -5 -5 -5 -4 -4 -4 -3 -3
-6 -6 -7 -7 -7 -7 -7 -7 -7 -8 -8 -8 -8 -8 -8 -9 -8 -9 -9 -8 -8 -8 -8 -8 -8 -7 -7 -6 -6 -6 -6 -6 -6 -6 -5 -5 -4 -4 -4 -4 -3 -3 -3
-7 -7 -7 -7 -7 -7 -8 -8 -8 -8 -8 -8 -8 -9 -9 -9 -9 -9 -9 -9 -9 -8 -8 -8 -7 -7 -6 -6 -6 -6 -6 -6 -6 -6 -6 -5 -5 -5 -5 -4 -4 -4 -4
-8 -7 -8 -7 -7 -8 -8 -8 -8 -9 -9 -9 -9 -9 -9 -9 -9 -9 -9 -9 -8 -9 -8 -7 -7 -7 -7 -7 -6 -6 -6 -6 -6 -6 -6 -6 -6 -6 -6 -5 -5 -5 -4
Height
3152 3152 3152 3152 3152 3153 3153 3152 3152 3153 3153 3153 3152 3153 3153 3153 3153 3152 3153 3154 3154 3154 3154 3153 3154 3154 3153 3154 3156 3158 3159 3160 3162 3163 3162 3164 3165 3167 3168 3171 3172 3174 3176
3146 3146 3145 3146 3146 3145 3145 3145 3145 3145 3145 3145 3145 3145 3145 3145 3145 3144 3143 3143 3145 3146 3146 3146 3146 3146 3145 3145 3147 3146 3152 3148 3152 3155 3156 3159 3161 3161 3162 3164 3165 3167 3170
3139 3139 3139 3139 3139 3138 3138 3138 3137 3137 3137 3137 3137 3136 3136 3135 3134 3133 3132 3132 3132 3135 3136 3137 3137 3136 3136 3138 3139 3139 3139 3142 3144 3143 3147 3150 3151 3155 3156 3158 3159 3161 3163
3133 3133 3133 3134 3133 3133 3132 3132 3132 3131 3131 3131 3131 3129 3128 3126 3125 3124 3124 3122 3122 3123 3126 3127 3127 3127 3126 3127 3131 3131 3131 3132 3136 3136 3138 3140 3142 3147 3149 3151 3152 3153 3154
3128 3128 3128 3128 3127 3127 3127 3126 3126 3125 3125 3124 3124 3123 3121 3119 3117 3115 3114 3113 3112 3113 3114 3116 3117 3118 3119 3117 3119 3121 3123 3124 3126 3127 3129 3130 3133 3136 3136 3141 3141 3146 3147
3124 3124 3124 3124 3123 3123 3122 3121 3120 3119 3118 3118 3117 3116 3115 3113 3111 3109 3107 3105 3103 3103 3104 3104 3105 3107 3109 3110 3109 3110 3113 3115 3117 3118 3118 3119 3122 3124 3123 3128 3132 3137 3140
3121 3120 3120 3119 3118 3118 3117 3115 3114 3112 3110 3109 3108 3108 3106 3105 3102 3101 3099 3097 3093 3091 3092 3093 3094 3096 3097 3100 3100 3101 3102 3100 3104 3107 3109 3109 3111 3112 3115 3116 3123 3128 3132
3116 3115 3114 3114 3112 3111 3110 3108 3106 3105 3103 3101 3100 3098 3098 3098 3094 3092 3089 3088 3086 3084 3083 3084 3084 3085 3086 3088 3090 3090 3093 3095 3097 3099 3100 3101 3102 3104 3107 3109 3114 3117 3122
3111 3110 3109 3108 3106 3105 3103 3101 3099 3098 3096 3094 3090 3090 3086 3083 3083 3080 3079 3077 3075 3075 3074 3074 3075 3075 3075 3077 3080 3080 3082 3085 3088 3089 3091 3093 3096 3097 3100 3103 3105 3107 3112
3106 3105 3104 3102 3100 3098 3096 3094 3092 3090 3088 3087 3085 3081 3077 3074 3070 3069 3070 3066 3064 3063 3063 3064 3065 3065 3065 3066 3068 3072 3072 3074 3078 3080 3081 3084 3087 3089 3092 3096 3097 3099 3102
3101 3099 3097 3095 3093 3091 3089 3088 3086 3084 3082 3079 3076 3074 3071 3066 3061 3057 3055 3058 3056 3053 3053 3054 3054 3053 3055 3056 3057 3061 3062 3064 3068 3071 3072 3074 3077 3080 3082 3084 3086 3091 3095
3094 3093 3091 3089 3086 3085 3084 3082 3080 3076 3073 3069 3066 3061 3059 3057 3054 3049 3046 3044 3043 3045 3043 3040 3042 3042 3043 3044 3047 3050 3052 3055 3058 3061 3063 3065 3068 3070 3073 3075 3078 3081 3086
3089 3087 3085 3084 3082 3080 3078 3075 3072 3069 3065 3061 3058 3054 3050 3046 3044 3041 3038 3035 3031 3032 3033 3029 3028 3029 3031 3033 3036 3039 3041 3044 3047 3051 3053 3055 3057 3061 3064 3067 3070 3072 3074
3083 3082 3081 3079 3077 3075 3071 3068 3065 3062 3059 3055 3051 3048 3044 3040 3037 3033 3030 3027 3023 3019 3018 3016 3015 3016 3017 3021 3024 3028 3030 3034 3036 3040 3043 3045 3047 3051 3053 3056 3059 3062 3063
3078 3076 3075 3072 3070 3068 3065 3062 3058 3056 3054 3049 3045 3042 3040 3036 3033 3029 3025 3021 3016 3011 3009 3005 3005 3004 3004 3007 3012 3017 3019 3022 3025 3029 3032 3034 3037 3040 3043 3046 3048 3051 3053
3072 3070 3068 3066 3064 3062 3059 3055 3052 3050 3047 3044 3041 3037 3035 3031 3028 3024 3021 3018 3012 3006 3001 2999 2998 2997 2996 2996 3001 3005 3008 3012 3014 3017 3020 3024 3027 3030 3033 3036 3039 3041 3043
3065 3063 3061 3059 3058 3055 3053 3049 3046 3044 3042 3038 3036 3032 3030 3026 3023 3020 3017 3012 3007 3003 2998 2996 2993 2992 2990 2990 2992 2995 2998 3002 3006 3008 3008 3012 3016 3020 3022 3025 3026 3029 3033
3059 3057 3055 3053 3052 3050 3047 3044 3044 3039 3037 3034 3031 3027 3025 3021 3018 3015 3011 3008 3004 3001 2997 2994 2990 2988 2985 2985 2986 2987 2989 2991 2995 2998 3000 3001 3005 3008 3010 3012 3015 3017 3021
3051 3050 3048 3047 3046 3045 3043 3041 3040 3035 3031 3030 3026 3023 3021 3017 3014 3010 3007 3004 3001 2998 2994 2991 2990 2987 2982 2980 2980 2982 2984 2987 2989 2990 2991 2993 2995 2998 3000 3002 3004 3006 3010
3045 3043 3042 3041 3041 3040 3040 3037 3035 3032 3029 3026 3023 3020 3019 3014 3010 3008 3004 3001 2999 2995 2993 2990 2988 2987 2984 2982 2980 2980 2981 2983 2985 2986 2988 2989 2990 2992 2994 2996 2997 2998 3000
3038 3038 3037 3036 3035 3035 3035 3032 3030 3027 3025 3023 3020 3019 3016 3012 3008 3006 3003 3000 2997 2994 2991 2989 2988 2987 2984 2982 2980 2979 2979 2981 2981 2982 2984 2986 2986 2987 2987 2989 2989 2991 2993
3031 3031 3031 3031 3031 3031 3030 3028 3025 3023 3023 3021 3018 3017 3013 3010 3007 3004 3002 2999 2996 2994 2993 2991 2991 2989 2987 2984 2981 2978 2978 2979 2980 2980 2981 2982 2983 2983 2984 2985 2986 2987 2987
3027 3027 3028 3028 3026 3026 3026 3023 3021 3019 3019 3018 3016 3014 3011 3008 3006 3003 3001 2999 2996 2994 2994 2992 2990 2988 2986 2984 2983 2981 2981 2981 2980 2980 2979 2980 2980 2980 2981 2982 2982 2982 2983
3021 3022 3022 3023 3024 3022 3020 3019 3018 3016 3016 3015 3013 3012 3009 3006 3004 3002 2999 2997 2996 2993 2992 2991 2990 2988 2986 2985 2984 2984 2983 2982 2981 2980 2980 2978 2979 2979 2978 2978 2978 2978 2978
3017 3018 3017 3016 3017 3016 3017 3016 3015 3013 3014 3013 3010 3008 3007 3004 3003 3000 2998 2996 2994 2992 2990 2989 2987 2986 2985 2983 2982 2981 2980 2980 2980 2980 2980 2980 2978 2977 2976 2976 2975 2974 2973
3012 3012 3012 3013 3013 3011 3012 3012 3012 3011 3011 3011 3008 3006 3004 3003 3000 2999 2997 2995 2993 2990 2988 2986 2984 2983 2982 2981 2980 2979 2978 2978 2977 2978 2978 2978 2977 2975 2973 2971 2970 2969 2967
Wind_Speed
34 35 36 36 36 36 37 36 36 35 35 34 33 32 33 33 33 33 33 29 28 28 30 31 33 34 35 35 33 31 27 27 25 29 32 28 27 27 26 25 27 25 25
29 31 32 33 34 35 34 34 34 32 33 34 33 34 34 36 37 39 39 36 35 35 35 35 34 34 36 35 37 43 41 48 39 38 39 40 33 30 29 28 31 29 28
25 26 27 28 28 28 29 28 28 29 29 30 30 30 31 32 31 34 35 34 34 35 37 39 37 38 39 37 38 36 27 38 32 38 48 48 37 43 33 33 32 33 31
22 22 23 24 24 24 24 25 26 27 28 28 28 30 31 32 32 33 33 34 34 34 36 38 40 39 39 39 35 34 33 32 34 37 41 37 34 46 43 39 37 37 33
21 21 21 21 20 20 21 22 23 24 24 25 26 27 28 30 31 32 32 33 35 34 35 37 39 41 39 38 32 29 31 31 37 34 40 37 39 48 48 47 43 40 36
16 16 17 17 17 18 19 20 22 24 25 25 26 26 27 30 32 32 33 35 35 36 36 38 38 39 38 37 32 30 33 34 38 39 39 35 40 47 50 50 47 42 38
14 15 15 15 15 16 18 20 22 25 28 31 32 31 32 33 34 34 33 33 36 35 35 36 37 38 39 37 34 32 36 38 37 40 36 35 35 36 41 48 45 41 40
14 13 13 14 16 18 20 23 25 28 31 34 36 36 34 32 34 35 35 34 34 33 33 35 38 41 41 40 37 34 36 36 34 34 35 32 31 35 48 40 42 44 44
13 14 15 17 18 20 23 25 28 29 32 34 37 36 38 38 35 35 35 35 35 35 35 36 38 41 43 41 40 38 38 35 34 33 39 40 33 31 47 41 43 45 47
16 16 17 18 20 23 26 28 30 32 33 34 35 38 39 40 41 41 34 36 37 37 37 36 38 41 42 42 41 41 43 40 37 35 35 34 36 40 44 49 50 46 47
17 17 19 21 24 26 28 29 31 33 35 36 36 36 36 38 41 42 45 38 33 37 39 38 39 40 44 45 44 44 46 42 40 37 37 37 33 32 35 36 38 41 44
18 20 21 23 25 26 28 30 31 33 35 36 37 38 38 35 32 34 38 41 40 30 34 40 42 43 44 44 46 47 47 46 44 40 39 39 35 31 31 32 38 38 45
20 21 22 23 24 26 28 29 32 33 34 35 34 34 32 31 29 28 30 34 39 36 33 39 42 47 48 48 48 48 48 46 45 44 43 42 41 37 33 31 34 39 39
20 21 22 23 25 27 28 31 32 32 31 31 29 27 26 25 25 26 27 29 30 30 25 30 39 47 49 51 51 50 51 48 51 47 47 44 42 38 36 35 36 38 41
21 21 22 23 25 26 29 31 30 29 28 28 27 24 23 21 21 22 24 28 26 24 22 25 29 34 44 46 50 47 50 51 53 48 44 42 41 40 39 38 39 39 41
21 22 22 24 25 28 30 29 28 26 25 23 21 20 20 20 18 21 19 23 22 22 18 21 23 22 28 34 39 47 47 47 47 52 51 47 42 42 43 43 42 41 41
21 21 22 23 25 27 28 26 24 21 19 19 19 19 19 17 17 16 19 20 19 21 19 16 21 21 20 20 25 32 49 48 47 50 55 57 52 50 47 45 45 41 42
21 21 22 23 25 26 25 20 17 16 17 17 17 17 17 16 16 15 15 19 18 15 17 21 15 12 13 12 11 13 24 34 41 47 52 55 52 51 47 43 43 40 40
21 20 20 23 24 23 18 14 14 14 14 15 15 15 15 15 15 15 14 11 17 13 14 12 16 17 13 3 7 11 16 22 22 20 28 35 38 34 33 35 36 36 37
19 18 19 22 21 16 13 13 13 12 13 13 13 13 13 12 12 12 10 9 11 12 11 10 13 11 9 7 5 2 4 11 14 15 12 12 16 17 18 16 22 29 34
19 19 18 20 15 12 12 12 13 10 11 12 12 13 12 10 9 9 8 7 8 10 11 10 10 10 9 9 6 4 4 4 5 8 10 12 13 14 15 21 19 17 19
17 16 15 15 12 12 12 12 10 10 11 11 11 12 10 8 7 7 7 7 7 7 7 7 6 6 5 3 5 6 6 6 6 6 6 6 7 7 8 9 11 19 30
15 14 13 12 11 11 11 9 9 9 10 11 11 10 9 7 6 5 5 5 5 5 4 5 6 6 6 5 5 5 3 4 5 6 7 8 7 7 8 9 10 11 14
13 13 12 12 11 10 9 9 8 8 9 10 9 8 7 6 6 5 5 5 5 5 6 6 5 4 4 4 4 4 2 3 3 4 6 9 9 10 10 11 12 13 14
13 14 13 11 12 11 10 9 8 7 8 9 8 6 6 6 6 7 7 7 7 7 7 6 5 5 6 6 7 9 10 8 7 7 6 8 11 13 13 14 16 17 17
14 14 13 13 14 11 11 9 8 7 8 7 6 5 5 7 7 8 9 9 9 10 9 8 9 9 9 9 9 10 11 11 10 10 8 8 9 10 14 16 17 19 21
Wind_Direction
263 265 266 268 270 271 272 273 273 271 268 267 266 266 267 267 266 271 275 272 270 270 271 270 268 267 264 259 254 249 242 248 253 259 256 256 240 240 240 242 254 234 239
265 265 267 269 271 272 274 276 278 278 277 276 273 272 270 271 270 270 274 273 267 264 264 268 269 266 263 260 257 263 256 263 282 251 259 254 262 245 241 241 244 246 238
270 270 270 271 270 273 276 278 279 279 281 282 282 280 279 278 278 276 275 274 269 262 260 261 263 264 264 264 268 271 270 249 259 248 246 257 248 247 247 248 243 247 232
273 272 270 270 272 274 276 277 278 279 280 280 281 281 282 281 279 277 277 275 272 263 256 258 261 261 263 265 266 268 266 256 253 250 248 258 247 243 246 241 242 239 240
275 275 274 275 275 276 277 279 280 282 284 287 287 288 288 287 286 284 280 276 273 268 260 257 258 263 263 262 260 256 251 254 246 247 250 257 245 244 253 231 238 237 240
270 271 272 274 278 281 286 289 292 294 296 297 297 298 294 291 289 287 284 280 278 271 263 258 256 257 258 259 254 246 246 248 248 247 247 249 235 250 236 226 232 234 235
275 277 282 287 291 294 297 299 300 302 301 299 296 297 298 293 289 286 279 272 269 266 258 254 252 251 252 249 247 244 241 239 238 236 241 231 229 245 215 218 227 233 235
281 284 288 295 301 302 303 305 306 304 301 298 296 294 290 286 284 284 279 273 269 266 262 254 249 247 248 249 246 240 243 245 242 241 240 232 247 243 221 225 228 231 232
283 291 299 301 303 307 310 308 306 304 302 301 298 297 296 293 291 286 281 276 269 263 260 253 248 246 248 249 247 242 241 243 245 241 232 239 241 244 220 232 235 239 234
296 300 302 305 310 311 310 307 304 303 302 300 300 300 298 295 292 287 279 275 269 263 257 254 247 248 248 248 246 243 237 238 240 240 242 242 240 239 235 242 247 248 238
299 302 304 308 310 310 309 309 307 305 303 301 300 300 298 296 293 288 285 278 272 268 262 256 251 249 247 250 248 247 245 242 238 239 245 246 242 242 244 244 252 244 241
301 303 307 311 311 310 309 307 306 306 305 305 304 300 299 300 297 290 286 282 281 265 259 259 254 249 248 249 248 250 248 248 243 240 245 250 252 246 242 244 244 248 243
303 307 310 310 308 307 306 307 308 309 309 308 307 307 308 308 304 299 293 287 283 279 266 258 252 251 247 245 248 248 247 250 251 250 245 249 255 256 252 255 245 245 249
301 306 308 307 307 307 308 310 310 310 308 308 308 308 310 311 311 310 311 304 296 289 287 264 254 247 248 246 245 251 253 252 254 254 251 247 250 256 260 260 259 253 253
295 303 306 306 305 305 308 309 310 310 311 312 310 306 307 303 306 311 316 321 310 303 287 286 273 260 250 246 243 246 250 250 250 252 252 250 251 255 261 266 264 259 254
298 302 304 305 305 306 307 310 311 312 314 312 311 308 306 301 306 315 317 326 327 327 314 284 278 268 259 252 244 241 245 248 247 252 250 253 256 262 265 268 261 256 254
296 301 306 306 305 307 308 309 309 311 311 312 309 306 301 303 303 313 324 324 320 336 342 321 282 268 260 255 245 242 241 246 248 251 256 257 256 264 263 263 260 256 251
296 302 304 303 305 307 306 303 308 312 315 318 315 315 306 301 304 303 313 329 328 337 332 333 335 314 266 248 236 248 256 253 253 252 254 260 259 261 261 259 259 256 249
292 297 298 299 302 302 300 304 305 315 322 322 324 321 316 315 311 311 311 324 328 322 336 339 329 333 354 340 225 239 253 261 258 264 255 253 255 257 257 257 256 255 253
287 292 295 300 299 297 298 296 309 323 326 328 330 327 323 326 325 320 324 322 336 344 350 347 338 344 346 334 329 327 255 249 245 260 251 257 270 267 264 269 270 260 259
289 288 297 295 293 287 290 299 308 322 329 327 327 322 320 326 328 326 332 344 351 3 2 8 1 357 6 359 0 351 327 306 284 266 260 260 274 274 275 251 258 257 262
276 286 294 289 282 286 287 295 313 326 327 328 327 322 319 323 325 331 340 351 8 12 8 12 5 9 18 22 14 18 10 355 340 324 313 302 300 295 290 285 277 259 255
280 288 286 280 280 280 284 297 309 321 323 325 328 324 322 324 322 338 349 352 8 19 13 16 13 12 24 43 66 57 26 18 4 350 341 338 338 327 315 311 305 294 284
271 267 269 274 280 279 285 290 298 313 319 321 328 335 335 337 340 351 359 358 8 16 15 6 5 17 33 43 61 80 97 65 37 4 341 330 328 322 319 315 310 306 302
264 257 262 265 271 278 281 283 289 306 310 311 322 346 349 3 1 1 0 4 3 13 9 3 9 21 26 26 18 17 16 3 354 344 327 306 305 302 300 299 299 297 295
250 253 254 259 268 269 269 272 279 292 292 297 315 345 4 3 9 5 5 3 4 2 351 357 10 14 14 10 4 357 350 342 332 323 313 305 295 291 296 295 292 293 293